Location: Musselshell
(46.5176°N, 108.0911°W)
Time: 04:11:54
(UTC+00:00)

SEEDS - Pass Details

Date: 08 July 2022
Orbit: 579 x 598 km, 97.6° (Epoch: 09 August)

Event Time Altitude Azimuth Distance (km) Brightness Sun altitude
Rises 10:41:05 0° 24° (NNE) 2,810 ? -7.1°
Reaches altitude 10° 10:43:34 10° 38° (NE) 1,905 ? -6.8°
Maximum altitude 10:46:58 25° 94° (E) 1,199 ? -6.4°
Drops below altitude 10° 10:50:22 10° 150° (SSE) 1,892 ? -6.0°
Sets 10:52:49 0° 164° (SSE) 2,787 ? -5.6°
